AAL223 KCLL-KBOI

Flight info

Callsign AAL223
Flight time N/A
Altitude 34000
Route BRKAT UKW ELEYE CHE PIH SICOY/N0356F160 V500 REAPS KOURT4
Aircraft B738/M-SDE2E3FGHIRWXY/LB1

Departure

Time 2026-04-20 23:47
Airport Easterwood Field (KCLL)

Arrival

Time N/A
Airport Boise Air Terminal/Gowen Field (KBOI)
Time Latitude Longitude Altitude Speed Heading
2026-04-20 23:31 30.59328 -96.36593 321 ft 0 kts 322°
2026-04-20 23:39 30.59326 -96.36592 324 ft 2 kts 322°
2026-04-20 23:39 30.59308 -96.36578 319 ft 2 kts 338°
2026-04-20 23:39 30.59292 -96.36575 319 ft 2 kts 23°
2026-04-20 23:39 30.59287 -96.36578 322 ft 0 kts 53°
2026-04-20 23:42 30.59290 -96.36573 319 ft 3 kts 58°
2026-04-20 23:42 30.59289 -96.36530 322 ft 8 kts 116°
2026-04-20 23:42 30.59231 -96.36465 324 ft 15 kts 139°
2026-04-20 23:42 30.59147 -96.36382 324 ft 17 kts 140°
2026-04-20 23:43 30.59056 -96.36295 323 ft 17 kts 145°
2026-04-20 23:43 30.58949 -96.36253 322 ft 16 kts 167°
2026-04-20 23:43 30.58842 -96.36228 321 ft 15 kts 169°
2026-04-20 23:43 30.58736 -96.36203 321 ft 16 kts 168°
2026-04-20 23:44 30.58616 -96.36177 320 ft 18 kts 169°
2026-04-20 23:44 30.58505 -96.36152 320 ft 14 kts 169°
2026-04-20 23:44 30.58439 -96.36138 319 ft 7 kts 169°
2026-04-20 23:44 30.58392 -96.36127 319 ft 7 kts 169°
2026-04-20 23:45 30.58347 -96.36117 319 ft 7 kts 169°
2026-04-20 23:45 30.58301 -96.36106 319 ft 7 kts 169°
2026-04-20 23:45 30.58243 -96.36093 319 ft 10 kts 168°
2026-04-20 23:45 30.58158 -96.36073 319 ft 16 kts 168°
2026-04-20 23:46 30.58031 -96.36043 318 ft 20 kts 169°
2026-04-20 23:46 30.57896 -96.36012 318 ft 20 kts 169°
2026-04-20 23:46 30.57777 -96.35963 318 ft 18 kts 111°
2026-04-20 23:46 30.57829 -96.35867 318 ft 1 kts 350°
2026-04-20 23:47 30.57942 -96.35893 319 ft 53 kts 348°
2026-04-20 23:47 30.58566 -96.36036 320 ft 130 kts 349°
2026-04-20 23:47 30.59662 -96.36282 485 ft 180 kts 352°
2026-04-20 23:47 30.60979 -96.36433 1203 ft 202 kts 359°
2026-04-20 23:48 30.62370 -96.36491 2307 ft 197 kts
2026-04-20 23:48 30.63768 -96.36547 3154 ft 208 kts
2026-04-20 23:48 30.65313 -96.36619 3461 ft 238 kts
2026-04-20 23:48 30.67064 -96.36719 3733 ft 267 kts 360°
2026-04-20 23:49 30.68970 -96.36848 4355 ft 277 kts 358°
2026-04-20 23:49 30.70893 -96.36995 5238 ft 278 kts 356°
2026-04-20 23:49 30.72804 -96.37149 6014 ft 281 kts 356°
2026-04-20 23:49 30.74770 -96.37313 6812 ft 286 kts 357°
2026-04-20 23:50 30.76755 -96.37481 7618 ft 286 kts 356°
2026-04-20 23:50 30.78737 -96.37652 8397 ft 286 kts 355°
2026-04-20 23:50 30.80731 -96.37824 9132 ft 289 kts 355°
2026-04-20 23:50 30.82751 -96.38000 9815 ft 294 kts 354°
2026-04-20 23:51 30.84802 -96.38178 10444 ft 300 kts 354°
2026-04-20 23:51 30.86913 -96.38339 10539 ft 307 kts 355°
2026-04-20 23:51 30.89067 -96.38501 10577 ft 313 kts 355°
2026-04-20 23:51 30.91229 -96.38683 10610 ft 318 kts 354°
2026-04-20 23:52 30.93449 -96.38871 10650 ft 322 kts 354°
2026-04-20 23:52 30.95677 -96.39278 10617 ft 327 kts 342°
2026-04-20 23:52 30.97787 -96.40252 10719 ft 327 kts 335°
2026-04-20 23:52 30.99885 -96.41351 10727 ft 333 kts 334°
2026-04-20 23:53 31.02013 -96.42482 10804 ft 339 kts 334°
2026-04-20 23:53 31.04156 -96.43640 10816 ft 343 kts 334°
2026-04-20 23:53 31.06340 -96.44814 10865 ft 349 kts 334°
2026-04-20 23:53 31.08570 -96.46012 10920 ft 355 kts 334°
2026-04-20 23:54 31.10828 -96.47227 11022 ft 359 kts 334°
2026-04-20 23:54 31.13060 -96.48429 11263 ft 357 kts 334°
2026-04-20 23:54 31.15312 -96.49643 11483 ft 357 kts 333°
2026-04-20 23:54 31.17575 -96.50863 11614 ft 359 kts 333°
2026-04-20 23:55 31.19843 -96.52088 11804 ft 360 kts 333°
2026-04-20 23:55 31.22081 -96.53298 11974 ft 360 kts 333°
2026-04-20 23:55 31.24358 -96.54529 12142 ft 361 kts 333°
2026-04-20 23:55 31.26638 -96.55762 12288 ft 362 kts 333°
2026-04-20 23:56 31.28907 -96.57040 12380 ft 363 kts 327°
2026-04-20 23:56 31.30753 -96.59031 12360 ft 363 kts 302°
2026-04-20 23:56 31.31718 -96.61744 12374 ft 365 kts 280°
2026-04-20 23:56 31.31788 -96.64664 12117 ft 368 kts 261°
2026-04-20 23:57 31.31021 -96.67510 11907 ft 370 kts 244°
2026-04-20 23:57 31.29509 -96.69952 11642 ft 374 kts 225°
2026-04-20 23:57 31.27366 -96.71681 11401 ft 379 kts 206°
2026-04-20 23:57 31.24827 -96.72533 11173 ft 383 kts 188°
2026-04-20 23:58 31.22160 -96.72643 11026 ft 384 kts 181°
2026-04-20 23:58 31.19481 -96.72564 10766 ft 386 kts 179°
2026-04-20 23:58 31.16796 -96.72430 10543 ft 387 kts 179°
2026-04-20 23:58 31.14135 -96.72293 10312 ft 388 kts 179°
2026-04-20 23:59 31.11436 -96.72168 10075 ft 389 kts 179°
2026-04-20 23:59 31.08729 -96.72057 9885 ft 386 kts 179°
2026-04-20 23:59 31.06108 -96.71945 9786 ft 370 kts 179°
2026-04-20 23:59 31.03580 -96.71839 9476 ft 356 kts 179°
2026-04-21 00:00 31.01161 -96.71746 9221 ft 341 kts 179°
2026-04-21 00:00 30.98833 -96.71664 8961 ft 328 kts 179°
2026-04-21 00:00 30.96596 -96.71590 8698 ft 316 kts 179°
2026-04-21 00:00 30.94434 -96.71521 8447 ft 306 kts 179°
2026-04-21 00:01 30.92342 -96.71455 8189 ft 296 kts 178°
2026-04-21 00:01 30.90337 -96.71392 7944 ft 288 kts 178°
2026-04-21 00:01 30.88367 -96.71331 7690 ft 279 kts 178°
2026-04-21 00:01 30.86450 -96.71271 7439 ft 272 kts 178°
2026-04-21 00:02 30.84583 -96.71213 7191 ft 265 kts 178°
2026-04-21 00:02 30.82760 -96.71156 6947 ft 259 kts 177°
2026-04-21 00:02 30.80977 -96.71103 6705 ft 254 kts 177°
2026-04-21 00:02 30.79215 -96.71053 6451 ft 252 kts 177°
2026-04-21 00:03 30.77499 -96.71002 6204 ft 249 kts 178°
2026-04-21 00:03 30.75755 -96.70949 5964 ft 246 kts 178°
2026-04-21 00:03 30.74069 -96.70897 5714 ft 246 kts 178°
2026-04-21 00:03 30.72361 -96.70843 5446 ft 244 kts 178°
2026-04-21 00:04 30.70672 -96.70791 5218 ft 242 kts 178°
2026-04-21 00:04 30.69000 -96.70738 4964 ft 239 kts 178°
2026-04-21 00:04 30.67345 -96.70686 4709 ft 237 kts 178°
2026-04-21 00:04 30.65704 -96.70634 4454 ft 235 kts 178°
2026-04-21 00:05 30.64077 -96.70582 4202 ft 233 kts 177°
2026-04-21 00:05 30.62482 -96.70530 3958 ft 231 kts 177°
2026-04-21 00:05 30.60880 -96.70480 3704 ft 230 kts 177°
2026-04-21 00:05 30.59285 -96.70432 3464 ft 231 kts 178°
2026-04-21 00:06 30.57638 -96.70407 3363 ft 239 kts 178°
2026-04-21 00:06 30.55968 -96.70375 3420 ft 242 kts 178°
2026-04-21 00:06 30.54286 -96.70267 3368 ft 243 kts 166°
2026-04-21 00:06 30.52848 -96.69323 3310 ft 240 kts 130°
2026-04-21 00:07 30.52103 -96.67608 3213 ft 242 kts 118°
2026-04-21 00:07 30.50981 -96.66100 2391 ft 258 kts 142°
2026-04-21 00:07 30.49268 -96.65353 1953 ft 265 kts 176°
2026-04-21 00:07 30.47543 -96.65710 2012 ft 243 kts 188°
2026-04-21 00:08 30.45951 -96.65804 1987 ft 216 kts 165°
2026-04-21 00:08 30.44699 -96.65109 1978 ft 187 kts 139°
2026-04-21 00:08 30.43876 -96.64090 1984 ft 161 kts 128°
2026-04-21 00:08 30.43184 -96.63138 1908 ft 151 kts 136°
2026-04-21 00:09 30.42341 -96.62379 1963 ft 158 kts 148°
2026-04-21 00:09 30.41442 -96.61552 1962 ft 174 kts 131°
2026-04-21 00:09 30.40780 -96.60304 1993 ft 193 kts 118°
2026-04-21 00:09 30.40093 -96.58864 1984 ft 214 kts 123°
2026-04-21 00:10 30.39269 -96.57365 1971 ft 230 kts 121°
2026-04-21 00:10 30.38474 -96.55755 1981 ft 230 kts 118°
2026-04-21 00:10 30.37759 -96.54092 1955 ft 231 kts 115°
2026-04-21 00:10 30.37132 -96.52372 1956 ft 232 kts 111°
2026-04-21 00:11 30.36610 -96.50595 1939 ft 233 kts 108°
2026-04-21 00:11 30.36184 -96.48796 1955 ft 231 kts 105°
2026-04-21 00:11 30.35861 -96.46978 1946 ft 230 kts 101°
2026-04-21 00:11 30.35629 -96.45138 1948 ft 232 kts 98°
2026-04-21 00:12 30.35480 -96.43267 1958 ft 235 kts 94°
2026-04-21 00:12 30.35453 -96.41398 1926 ft 236 kts 90°
2026-04-21 00:12 30.35550 -96.39499 1914 ft 236 kts 86°
2026-04-21 00:12 30.35757 -96.37624 1924 ft 235 kts 83°
2026-04-21 00:13 30.36061 -96.35758 1941 ft 236 kts 79°
2026-04-21 00:13 30.36473 -96.33914 1931 ft 238 kts 73°
2026-04-21 00:13 30.37424 -96.32348 1918 ft 244 kts 37°
2026-04-21 00:13 30.39025 -96.31717 1951 ft 249 kts
2026-04-21 00:14 30.40760 -96.31918 1987 ft 253 kts 352°
2026-04-21 00:14 30.42468 -96.32337 1941 ft 246 kts 350°
2026-04-21 00:14 30.44097 -96.32737 1943 ft 234 kts 352°
2026-04-21 00:14 30.45642 -96.33087 1954 ft 224 kts 352°
2026-04-21 00:15 30.47173 -96.33421 1957 ft 227 kts 353°
2026-04-21 00:15 30.48743 -96.33776 1998 ft 233 kts 352°
2026-04-21 00:15 30.50352 -96.34156 1735 ft 238 kts 351°
2026-04-21 00:15 30.51948 -96.34527 1490 ft 228 kts 351°
2026-04-21 00:16 30.53487 -96.34876 1175 ft 220 kts 351°
2026-04-21 00:16 30.54938 -96.35208 893 ft 207 kts 349°
2026-04-21 00:16 30.56301 -96.35518 644 ft 192 kts 349°
2026-04-21 00:16 30.57548 -96.35808 399 ft 174 kts 349°
2026-04-21 00:17 30.58566 -96.36037 320 ft 104 kts 349°
2026-04-21 00:17 30.59120 -96.36159 322 ft 72 kts 349°
2026-04-21 00:17 30.59523 -96.36250 323 ft 34 kts 348°
2026-04-21 00:17 30.59649 -96.36342 323 ft 17 kts 270°
2026-04-21 00:18 30.59606 -96.36460 324 ft 16 kts 202°
2026-04-21 00:18 30.59498 -96.36444 322 ft 15 kts 169°
2026-04-21 00:18 30.59395 -96.36428 323 ft 15 kts 187°
2026-04-21 00:18 30.59326 -96.36498 324 ft 12 kts 228°
2026-04-21 00:19 30.59301 -96.36572 324 ft 9 kts 321°
2026-04-21 00:19 30.59323 -96.36589 323 ft 0 kts 325°
2026-04-21 00:28 30.59324 -96.36590 324 ft 0 kts 325°
2026-04-21 00:28 30.59325 -96.36590 324 ft 0 kts 325°
2026-04-21 00:28 30.59326 -96.36591 324 ft 0 kts 330°
2026-04-21 00:28 30.59327 -96.36591 324 ft 0 kts 336°
2026-04-21 00:29 30.59328 -96.36591 324 ft 0 kts 336°
2026-04-21 00:29 30.59329 -96.36592 321 ft 0 kts 336°
2026-04-21 00:29 30.59330 -96.36592 321 ft 0 kts 336°
2026-04-21 00:30 30.59331 -96.36593 321 ft 0 kts 336°
2026-04-21 00:30 30.59332 -96.36593 321 ft 0 kts 337°
2026-04-21 00:30 30.59333 -96.36594 321 ft 0 kts 337°
2026-04-21 00:30 30.59334 -96.36594 321 ft 0 kts 337°
2026-04-21 00:31 30.59335 -96.36595 321 ft 0 kts 335°
2026-04-21 00:31 30.59335 -96.36596 322 ft 0 kts 328°
2026-04-21 00:31 30.59336 -96.36596 322 ft 0 kts 328°
2026-04-21 00:31 30.59337 -96.36597 322 ft 0 kts 328°
2026-04-21 00:32 30.59338 -96.36597 322 ft 0 kts 328°
2026-04-21 00:32 30.59339 -96.36598 322 ft 0 kts 328°
2026-04-21 00:32 30.59340 -96.36599 322 ft 0 kts 328°
2026-04-21 00:33 30.59341 -96.36600 322 ft 0 kts 328°
2026-04-21 00:33 30.59342 -96.36600 323 ft 0 kts 328°
2026-04-21 00:33 30.59342 -96.36601 324 ft 0 kts 328°
2026-04-21 00:33 30.59343 -96.36601 324 ft 0 kts 328°
2026-04-21 00:34 30.59328 -96.36593 324 ft 0 kts 322°